Regional Weather Roundup
Issued by NWS

Home | Current Version | Previous Version | Graphics & Text | Print | Product List | Glossary On
Versions: 1 2 3 4 5 6 7 8 9 10 11 12 13 14 15 16 17 18 19 20 21 22 23 24 25 26 27 28 29 30 31 32 33 34 35 36 37 38 39 40 41 42 43 44 45 46 47 48 49 50
000
ASUS43 KIND 270009
RWRIN

WEATHER ROUNDUP FOR INDIANA
NATIONAL WEATHER SERVICE INDIANAPOLIS IN
700 PM EST MON JAN 26 2015

NOTE: "FAIR" INDICATES FEW OR NO CLOUDS BELOW 12,000 FEET WITH NO
SIGNIFICANT WEATHER AND/OR OBSTRUCTIONS TO VISIBILITY.

* - STATION DOES NOT REPORT WEATHER SUCH AS PRECIPITATION OR FOG.

+ - STATION NOT QUALITY CONTROLLED BY THE NATIONAL WEATHER SERVICE.
    USE DATA WITH CAUTION...ESPECIALLY DEWPOINT AND RELATIVE
    HUMIDITY OBSERVATIONS.

INZ001>003-010>013-019-020-270100-
NORTHWEST INDIANA

CITY           SKY/WX    TMP DP  RH WIND       PRES   REMARKS
GARY /AIRPORT/ CLOUDY    28  19  69 S3        29.91R
KNOX *+        MOCLDY    23   6  47 CALM      29.91R
LA PORTE +     CLOUDY    25  18  76 CALM      29.91R
6HR MIN TEMP:  22; 6HR MAX TEMP:  25;

MICHIGAN CITY+ CLOUDY    23  12  63 S3        29.92R
MONTICELLO +   CLOUDY    23  19  85 SE3       29.91R
RENSSELAER +   CLOUDY    28  27  93 S6        29.91S WCI  22
VALPARAISO     CLOUDY    24  16  71 SE5       29.91R WCI  18
6HR MIN TEMP:  20; 6HR MAX TEMP:  24;


$$

LMZ046-743>745-270100-
SOUTHERN LAKE MICHIGAN

STATION/POSITION TIME  TEMP WIND        PRES
                       AIR  DIR/SP/G
                 (UTC) (F)  (DEG/KT/KT) (MB)
MICHIGAN CITY    0000   23  120/  6/  8   N/A

$$

INZ004-005-014>016-021>024-270100-
NORTH CENTRAL INDIANA

CITY           SKY/WX    TMP DP  RH WIND       PRES   REMARKS
ELKHART        MOCLDY    23   9  54 CALM      29.92R
GOSHEN         MOCLDY    21  10  62 CALM      29.91R
6HR MIN TEMP:  20; 6HR MAX TEMP:  24;

LOGANSPORT +   CLOUDY    19  16  86 E5        29.92S WCI  13
PERU/GRISSOM   MOCLDY    17  12  80 S3        29.91R
6HR MIN TEMP:  17; 6HR MAX TEMP:  21; 6HR PCP: TRACE;

ROCHESTER +    PTCLDY    25  16  68 CALM      29.92R
SOUTH BEND     CLOUDY    24  15  68 SE9       29.91R WCI  14
6HR MIN TEMP:  21; 6HR MAX TEMP:  25;

WARSAW +       PTCLDY    23  14  68 CALM      29.90S

$$

INZ006>009-017-018-025>027-270100-
NORTHEAST INDIANA

CITY           SKY/WX    TMP DP  RH WIND       PRES   REMARKS
ANGOLA *+      CLEAR     18   7  62 CALM      29.89S
AUBURN +       PTCLDY    19   5  53 CALM      29.91F
FORT WAYNE     MOCLDY    17  11  77 S5        29.92S WCI  10
6HR MIN TEMP:  17; 6HR MAX TEMP:  22;

HUNTINGTON +   PTCLDY    19   8  62 SE3       29.92S
6HR MIN TEMP:  19; 6HR MAX TEMP:  24;


$$

INZ028-029-035-036-043>045-051>053-270100-
WEST CENTRAL INDIANA

CITY           SKY/WX    TMP DP  RH WIND       PRES   REMARKS
CRAWFORDSVL +  CLOUDY    27  19  71 S8        29.91R WCI  18
GREENCASTLE +  CLOUDY    28  19  69 CALM      29.92R
LAFAYETTE      CLOUDY    27  21  78 CALM      29.92R
6HR MIN TEMP:  25; 6HR MAX TEMP:  28;

TERRE HAUTE    CLOUDY    27  22  81 SW6       29.94R WCI  20
6HR MIN TEMP:  27; 6HR MAX TEMP:  30; 6HR PCP: TRACE;


$$

INZ030>032-037>040-046>048-054>057-064-065-270100-
CENTRAL INDIANA

CITY           SKY/WX    TMP DP  RH WIND       PRES   REMARKS
CP ATTERBURY + CLOUDY    28  23  80 CALM      29.93S
COLUMBUS       CLOUDY    27  21  80 CALM      29.94R
GREENWOOD *+   CLOUDY    27  18  69 CALM      29.93
INDIANAPOLIS   CLOUDY    26  20  77 CALM      29.91R
6HR MIN TEMP:  23; 6HR MAX TEMP:  26;

-EAGLE CREEK   CLOUDY    27  20  75 CALM      29.91R
6HR MIN TEMP:  24; 6HR MAX TEMP:  27;

KOKOMO *+      PTCLDY    19  12  73 SE3       29.92R
MARION +       CLOUDY    20  13  75 CALM      29.92S
MT COMFORT *+  CLOUDY    28  16  59 W5        29.92R WCI  23
SHELBYVILLE    CLOUDY    27  19  72 CALM      29.92R
6HR MIN TEMP:  27; 6HR MAX TEMP:  30;

ZIONSVILLE +   CLOUDY    27  19  72 CALM      29.91R
6HR MIN TEMP:  26; 6HR MAX TEMP:  28;


$$

INZ033-034-041-042-049-050-058-059-270100-
EAST CENTRAL INDIANA

CITY           SKY/WX    TMP DP  RH WIND       PRES   REMARKS
MUNCIE         PTCLDY    18  13  80 SE3       29.91S
6HR MIN TEMP:  17; 6HR MAX TEMP:  23;


$$

INZ060-061-067>069-081>083-085>088-270100-
SOUTHWEST INDIANA

CITY           SKY/WX    TMP DP  RH WIND       PRES   REMARKS
EVANSVILLE     CLOUDY    31  26  82 CALM      29.99R
6HR MIN TEMP:  30; 6HR MAX TEMP:  32; 6HR PCP:  0.01;

HUNTINGBURG *+ CLOUDY    28  25  86 W5        29.98R WCI  23
6HR MIN TEMP:  28; 6HR MAX TEMP:  30;

WASHINGTON +   LGT SNOW  27  24  87 W3        29.97R
6HR MIN TEMP:  27; 6HR MAX TEMP:  31;


$$

INZ062-063-066-070>080-084-089>092-270100-
SOUTH CENTRAL AND SOUTHEAST INDIANA

CITY           SKY/WX    TMP DP  RH WIND       PRES   REMARKS
BLOOMINGTON    CLOUDY    28  23  81 W6        29.92R WCI  22
6HR MIN TEMP:  27; 6HR MAX TEMP:  30;

SEYMOUR +      CLOUDY    32  25  74 W3        29.95R

$$




USA.gov is the U.S. government's official web portal to all federal, state and local government web resources and services.